Location: Winthrop
(48.4780°N, 120.1850°W)
Time: 12:04:37
(UTC-07:00)

Vanguard 3 - Pass Details

Date: 14 February 2023
Orbit: 508 x 3249 km, 33.4° (Epoch: 28 March)

Event Time Altitude Azimuth Distance (km) Brightness Sun altitude
Rises 21:06:14 0° 257° (WSW) 4,290 11.5 -37.2°
Reaches altitude 10° 21:10:08 10° 237° (WSW) 3,769 10.8 -37.8°
Maximum altitude 21:16:02 17° 202° (SSW) 3,854 10.5 -38.7°
Enters shadow 21:17:41 17° 193° (SSW) 4,048 10.5 -38.9°
